Find Starlink 11533

NORAD ID: 62836 Int'l Des: 2025-019 Owner: SPXS Country: US Constellation: starlink operational
LEOCIRCULAR

Live Position

Loading 3D Globe...

About Starlink 11533

Description loading...

Upcoming Passes

Passes for default location (London). Set your location on the main map for personalized predictions.

Altitude History

Loading altitude history...

Two-Line Element Set

1 62836U 25019H 26121.74232617 .00033295 00000-0 26172-3 0 9999
2 62836 43.0005 346.2790 0002195 241.1463 118.9184 15.70858134 72225
Epoch: May 1, 2026 • Age: 10 hours

Current Status

Altitude 362.3 km
Velocity 7.69 km/s
Sub-Earth Point -28.11°S, 80.39°W
Launch Date Jan 27, 2025
Age 1.2 years
Type internet

Technical Details

Classification Payload
Mass 960.00 kg
Dry Mass 910.00 kg
Total Mass 960.00 kg
Length 0.30 m
Diameter 4.10 m
Span 29.00 m
Shape Box + pan
Manufacturer SPXS
Bus Type Starlink V2MD
Phase Status In Orbit
Owner/State SPXS/US

Most Searched